Overview Statistics Trail Chart Weather Telemetry Raw packets
 

This is the latest recevied weather packets stored in our database for station/object WD7OO. If no packets are shown the sender has not sent any weather packets the latest 10 day(s).

<< 38 39 40 41 42 43 44 >>
Time Temp. Humidity Pressure Rain* Wind** Luminosity Snow
1788366651 31.67° C 70% 1016.5 hPa 0 mm - 206 W/m² -
1788366345 32.22° C 69% 1016.4 hPa 0 mm - 216 W/m² -
1788366041 33.33° C 63% 1016.4 hPa 0 mm - 264 W/m² -
1788365741 33.33° C 64% 1016.3 hPa 0 mm - 743 W/m² -
1788365437 32.78° C 67% 1016.3 hPa 0 mm - 767 W/m² -
1788365132 32.78° C 67% 1016.1 hPa 0 mm - 695 W/m² -
1788364827 32.78° C 72% 1016.2 hPa 0 mm - 662 W/m² -
1788364520 32.22° C 68% 1016.2 hPa 0 mm - 633 W/m² -
1788364220 31.67° C 67% 1016.3 hPa 0 mm - 652 W/m² -
1788363915 31.67° C 69% 1016.3 hPa 0 mm - 651 W/m² -
1788363610 31.11° C 70% 1016.1 hPa 0 mm - 616 W/m² -
1788363308 31.11° C 69% 1016.4 hPa 0 mm - 599 W/m² -
1788363004 30.56° C 71% 1016.2 hPa 0 mm - 574 W/m² -
1788362700 30.56° C 72% 1016.5 hPa 0 mm - 192 W/m² -
1788362394 31.11° C 69% 1016.3 hPa 0 mm - 377 W/m² -
1788362091 31.11° C 68% 1016.3 hPa 0 mm - 642 W/m² -
1788361784 30.56° C 71% 1016.3 hPa 0 mm - 585 W/m² -
1788361481 30.56° C 74% 1016.3 hPa 0 mm - 561 W/m² -
1788361180 30° C 73% 1016.4 hPa 0 mm - 540 W/m² -
1788360876 29.44° C 75% 1016.4 hPa 0 mm - 504 W/m² -
1788360570 28.89° C 74% 1016.2 hPa 0 mm - 474 W/m² -
1788360266 28.89° C 75% 1016.2 hPa 0 mm - 181 W/m² -
1788359966 29.44° C 74% 1016.5 hPa 0 mm - 233 W/m² -
1788359661 29.44° C 74% 1016.4 hPa 0 mm - 235 W/m² -
1788359357 29.44° C 74% 1016.4 hPa 0 mm - 462 W/m² -

* Rain latest hour (hover to see other rain measurements)
** Current wind speed in m/s (hover to see current wind gust speed)